Weather History for KMKC - June, 2013

Change the Weather History Date:

Monday, June 3, 2013

  Actual Average Record
Temperature  
Mean Temperature 62 °F -  
Max Temperature 75 °F 77 °F 93 °F (2011)
Min Temperature 50 °F 60 °F 50 °F (2013)
Degree Days  
Heating Degree Days 2    
Growing Degree Days 12 (Base 50)    
Moisture  
Dew Point 51 °F    
Average Humidity 64    
Maximum Humidity 89    
Minimum Humidity 46    
Precipitation  
Precipitation 0.00 in - - ()
Sea Level Pressure  
Sea Level Pressure 29.99 in    
Wind  
Wind Speed 4 mph (ESE)    
Max Wind Speed 13 mph    
Max Gust Speed 21 mph    
Visibility 10 miles    
Events      
Averages and records for this station are not official NWS values.
T = Trace of Precipitation, MM = Missing Value Source: NWS Daily Summary

Daily Weather History Graph

Daily Weather History Graph

Search for Another Location

Airport or City:

Trip Planner

Search our weather history database for the weather conditions in past years. The results will help you decide how hot, cold, wet, or windy it might be!

Date:

Astronomy

Jun. 03, 2013 Rise Set
Actual Time 5:53 AM CDT 8:40 PM CDT
Civil Twilight 5:21 AM CDT 9:11 PM CDT
Nautical Twilight 4:42 AM CDT 9:51 PM CDT
Astronomical Twilight 3:56 AM CDT 10:36 PM CDT
Moon 2:49 AM CDT (6/3) 4:13 PM CDT (6/3)
Length of Visible Light 15h 50m
Length of Day
14h 46m
Waning Crescent, 22% of the Moon is Illuminated
Jun 3
Waning Crescent
Jun 8
New
Jun 16
First Quarter
Jun 23
Full
Jun 29
Last Quarter

Hourly Weather History & Observations

Time (CDT) Temp. Dew Point Humidity Pressure Visibility Wind Dir Wind Speed Gust Speed Precip Events Conditions
12:54 AM 55.0 °F 46.9 °F 74% 30.04 in 10.0 mi Calm Calm - N/A   Clear
1:54 AM 54.0 °F 46.9 °F 77% 30.05 in 10.0 mi NNE 3.5 mph - N/A   Clear
2:54 AM 52.0 °F 46.9 °F 83% 30.05 in 10.0 mi NE 3.5 mph - N/A   Clear
3:54 AM 52.0 °F 48.0 °F 86% 30.04 in 10.0 mi Calm Calm - N/A   Clear
4:54 AM 51.1 °F 48.0 °F 89% 30.06 in 10.0 mi Calm Calm - N/A   Clear
5:54 AM 50.0 °F 46.9 °F 89% 30.07 in 10.0 mi Calm Calm - N/A   Clear
6:54 AM 52.0 °F 48.9 °F 89% 30.07 in 10.0 mi NNE 3.5 mph - N/A   Clear
7:54 AM 57.0 °F 50.0 °F 77% 30.07 in 10.0 mi Calm Calm - N/A   Clear
8:54 AM 61.0 °F 46.9 °F 60% 30.07 in 10.0 mi Variable 4.6 mph - N/A   Clear
9:54 AM 64.0 °F 48.0 °F 56% 30.05 in 10.0 mi East 5.8 mph - N/A   Clear
10:54 AM 64.9 °F 48.9 °F 56% 30.04 in 10.0 mi ESE 5.8 mph - N/A   Clear
11:54 AM 68.0 °F 51.1 °F 55% 30.02 in 10.0 mi SSE 6.9 mph - N/A   Clear
12:54 PM 70.0 °F 51.1 °F 51% 29.99 in 10.0 mi Variable 6.9 mph - N/A   Clear
1:54 PM 72.0 °F 53.1 °F 51% 29.97 in 10.0 mi South 6.9 mph - N/A   Clear
2:54 PM 73.0 °F 53.1 °F 49% 29.94 in 10.0 mi Variable 4.6 mph 16.1 mph N/A   Clear
3:54 PM 73.9 °F 52.0 °F 46% 29.92 in 10.0 mi SSE 6.9 mph - N/A   Clear
4:54 PM 75.0 °F 54.0 °F 48% 29.91 in 10.0 mi SSE 12.7 mph 19.6 mph N/A   Clear
5:54 PM 73.9 °F 53.1 °F 48% 29.90 in 10.0 mi SSE 9.2 mph 17.3 mph N/A   Clear
6:54 PM 73.0 °F 54.0 °F 51% 29.89 in 10.0 mi SSE 6.9 mph 18.4 mph N/A   Clear
7:54 PM 72.0 °F 53.1 °F 51% 29.90 in 10.0 mi SE 10.4 mph 18.4 mph N/A   Clear
8:54 PM 69.1 °F 54.0 °F 58% 29.90 in 10.0 mi ESE 5.8 mph - N/A   Clear
9:54 PM 66.9 °F 55.0 °F 66% 29.91 in 10.0 mi ESE 6.9 mph - N/A   Clear
10:54 PM 66.9 °F 55.0 °F 66% 29.93 in 10.0 mi East 4.6 mph - N/A   Clear
11:54 PM 66.9 °F 55.0 °F 66% 29.91 in 10.0 mi ESE 11.5 mph 20.7 mph N/A   Clear